Location: *
(51.2167°N, 10.0667°E)
Time: 06:05:15
(UTC+00:00)

CZ-4B R/B - Pass Details

Date: 12 December 2019
Orbit: 809 x 881 km, 99.1° (Epoch: 18 January)

Event Time Altitude Azimuth Distance (km) Brightness Sun altitude
Rises 16:27:39 0° 183° (S) 3,333 6.7 -11.0°
Reaches altitude 10° 16:30:05 10° 189° (S) 2,413 6.0 -11.4°
Maximum altitude 16:35:10 44° 261° (W) 1,141 4.5 -12.1°
Drops below altitude 10° 16:40:23 10° 334° (NNW) 2,472 5.7 -12.9°
Sets 16:42:54 0° 340° (NNW) 3,423 6.4 -13.3°
